Volver al catálogo

JILIN-1 GAOFEN 03D 55 XING

ActivoCienciaSSO
NORAD 69099·PAYLOAD·🇨🇳 China
Este nombre de satélite aún no ha sido confirmado por fuentes oficiales.

Lanzado May 15, 2026 desde Jiuquan Satellite Launch Center

Loading…

Próximos Pases (próximas 24 horas)

TLE

ActualizadoSource: Space-Track

Época: Sep 14, 2026, 13:41 UTC

1 69099U 26106C   26257.57069150  .00005483  00000-0  32188-3 0  9998
2 69099  97.5051 338.0979 0012886 212.5273 147.5165 15.12064988 18482

Sigue JILIN-1 GAOFEN 03D 55 XING en tiempo real con AllMySat

Download on the App Store